This demonstration page uses our WeatherBlox Daily Observations layout. Learn more.

Left ArrowRight Arrow

41.55636, -103.73856

Hourly Observations for March 6, 2017

Temp ( °F °C ) Dew Point ( °F °C ) Humidity (%) Winds ( mph kmh ) Pressure ( in mb ) Visibility ( mi km ) Precip ( " mm )
12:53 am 00:53 Clear 43 6.1 24 -4.4 47 47 WNW 10 17 29.20 989 10 16 0.00 0.00
1:53 am 01:53 Clear 37 2.8 24 -4.4 59 59 NNW 7 11 29.22 990 10 16 0.00 0.00
2:53 am 02:53 Clear 35 1.7 23 -5 61 61 NNW 10 17 29.21 989 10 16 0.00 0.00
3:53 am 03:53 Clear 32 0 24 -4.4 73 73 WSW 6 9 29.23 990 10 16 0.00 0.00
4:53 am 04:53 Clear 32 0 25 -3.9 75 75 WNW 3 6 29.26 991 10 16 0.00 0.00
5:53 am 05:53 Partly Cloudy 40 4.4 29 -1.7 65 65 WNW 21 33 29.28 992 10 16 0.00 0.00
6:53 am 06:53 Sunny 36 2.2 21 -6.1 55 55 WNW 17 28 29.34 993 10 16 0.00 0.00
7:53 am 07:53 Sunny 39 3.9 19 -7.2 45 45 W 32 52 29.37 995 10 16 0.00 0.00
8:53 am 08:53 Sunny 40 4.4 19 -7.2 43 43 WNW 35 56 29.39 995 10 16 0.00 0.00
9:53 am 09:53 Sunny 39 3.9 16 -8.9 39 39 W 35 56 29.46 998 10 16 0.00 0.00
10:53 am 10:53 Sunny 37 2.8 15 -9.4 41 41 W 32 52 29.51 999 10 16 0.00 0.00
11:53 am 11:53 Sunny 41 5 13 -10.6 32 32 W 37 59 29.53 1000 10 16 0.00 0.00
12:22 pm 12:22 Mostly Cloudy with Light Snow 36 2 27 -3 70 70 WNW 31 50 29.62 1003 2 3 0.00 0.00
12:30 pm 12:30 Cloudy with Snow 32 0 27 -3 80 80 WNW 31 50 29.71 1006 1 1 0.00 0.00
12:38 pm 12:38 Cloudy with Heavy Snow 32 0 27 -3 80 80 WNW 31 50 29.71 1006 0 0 0.00 0.00
12:53 pm 12:53 Mostly Cloudy with Snow 30 -1.1 25 -3.9 82 82 W 24 39 29.61 1003 1 1 0.02 0.51
1:00 pm 13:00 Windy with Snow Likely 32 0 21 -6 64 64 W 25 41 29.71 1006 2 3 0.00 0.00
1:03 pm 13:03 Windy with Snow Likely 32 0 21 -6 64 64 WNW 28 44 29.71 1006 3 5 0.00 0.00
1:11 pm 13:11 Windy with Snow Likely 32 0 24 -4.4 73 73 WNW 30 48 29.71 1006 2 2 0.00 0.03
1:20 pm 13:20 Windy with Snow Likely 30 -1 25 -4 80 80 WNW 29 46 29.74 1007 1 1 0.00 0.00
1:25 pm 13:25 Windy with Snow Likely 31 -0.6 24 -4.4 76 76 WNW 26 43 29.74 1007 2 3 0.00 0.03
1:33 pm 13:33 Windy with Snow Likely 31 -0.6 25 -3.9 79 79 WNW 24 39 29.74 1007 1 1 0.00 0.03
1:45 pm 13:45 Windy with Snow Likely 31 -0.6 26 -3.3 82 82 NW 24 39 29.74 1007 3 4 0.00 0.03
1:53 pm 13:53 Cloudy 31 -0.6 24 -4.4 76 76 NW 30 48 29.67 1005 9 14 0.00 0.03
2:46 pm 14:46 Windy with Snow Likely 30 -1 25 -4 80 80 WNW 28 44 29.83 1010 3 4 0.00 0.00
2:53 pm 14:53 Windy with Snow Likely 30 -1.1 24 -4.4 79 79 WNW 30 48 29.72 1006 1 2 0.00 0.03
3:00 pm 15:00 Windy with Snow Likely 30 -1 21 -6 69 69 WNW 35 56 29.83 1010 3 5 0.00 0.00
3:05 pm 15:05 Windy with Snow Likely 30 -1.1 23 -5 75 75 NW 33 54 29.83 1010 2 3 0.00 0.03
3:32 pm 15:32 Windy with Snow Likely 30 -1 23 -5 75 75 NW 23 37 29.83 1010 3 5 0.00 0.00
3:40 pm 15:40 Cloudy 30 -1 25 -4 80 80 WNW 17 28 29.83 1010 9 14 0.00 0.00
3:53 pm 15:53 Cloudy 32 0 23 -5 69 69 WNW 26 43 29.77 1008 10 16 0.00 0.03
4:53 pm 16:53 Cloudy with Light Wintry Mix 30 -1.1 21 -6.1 69 69 WNW 18 30 29.79 1009 8 13 0.00 0.03
5:53 pm 17:53 Cloudy 30 -1.1 19 -7.2 64 64 W 15 24 29.79 1009 10 16 0.00 0.03
6:53 pm 18:53 Mostly Cloudy 28 -2.2 21 -6.1 75 75 W 13 20 29.85 1011 10 16 0.00 0.00
7:53 pm 19:53 Mostly Cloudy 29 -1.7 18 -7.8 63 63 W 14 22 29.85 1011 10 16 0.00 0.00
8:53 pm 20:53 Clear 28 -2.2 18 -7.8 66 66 W 13 20 29.86 1011 10 16 0.00 0.00
9:53 pm 21:53 Clear 29 -1.7 15 -9.4 56 56 W 17 28 29.89 1012 10 16 0.00 0.00
10:53 pm 22:53 Clear 30 -1.1 14 -10 51 51 W 21 33 29.90 1013 10 16 0.00 0.00
11:53 pm 23:53 Clear 29 -1.7 13 -10.6 51 51 WNW 15 24 29.91 1013 10 16 0.00 0.00

Powered by AerisWeather